W1JCN Weather Reports


Display with metric or nautical units.
time (UTC)temp
F
wind
direction
speed
MPH
gust
MPH
rain 1hr
in
rain 24hr
in
rain mn
in
humidity
%
barometer
mb
20260906180225 63 331 1.0 10.0 0.01 0.35 0.31 77 1013.7
20260906175325 64 331 2.0 13.0 0.00 0.34 0.30 77 1013.8
20260906173525 63 296 1.0 14.0 0.00 0.34 0.30 80 1014.0
20260906172625 63 322 2.0 14.0 0.00 0.34 0.30 82 1014.0
20260906171725 62 323 2.0 15.0 0.00 0.34 0.30 81 1014.3
20260906170825 62 323 2.0 10.0 0.00 0.34 0.30 83 1014.3
20260906165025 62 302 1.0 9.0 0.00 0.34 0.30 88 1014.3
20260906164125 62 299 1.0 7.0 0.00 0.34 0.30 87 1014.4
20260906163225 61 279 1.0 5.0 0.00 0.34 0.30 88 1014.4
20260906162325 60 280 1.0 5.0 0.00 0.34 0.30 92 1014.5
20260906161426 60 315 1.0 7.0 0.00 0.34 0.30 89 1014.5
20260906160525 60 308 1.0 8.0 0.00 0.34 0.30 89 1014.6
20260906155625 61 317 2.0 7.0 0.00 0.34 0.30 88 1014.5
20260906154724 61 279 1.0 7.0 0.00 0.34 0.30 91 1014.5
20260906153825 60 295 1.0 3.0 0.00 0.34 0.30 92 1014.6
20260906152925 59 333 1.0 9.0 0.00 0.34 0.30 92 1014.8
20260906152025 58 279 1.0 6.0 0.00 0.34 0.30 93 1014.7
20260906151125 58 330 1.0 8.0 0.00 0.34 0.30 93 1014.7
20260906150224 57 317 1.0 8.0 0.00 0.34 0.30 94 1014.9
20260906145325 58 322 1.0 5.0 0.00 0.34 0.30 94 1014.7
20260906143525 56 316 1.0 6.0 0.00 0.34 0.30 94 1014.6
20260906142626 57 317 0.0 6.0 0.00 0.34 0.30 94 1014.6
20260906141724 57 0 0.0 0.0 0.00 0.34 0.30 94 1014.5
20260906140824 56 0 0.0 0.0 0.00 0.34 0.30 94 1014.5
20260906135924 56 232 0.0 1.0 0.00 0.34 0.30 94 1014.4
20260906135024 56 0 0.0 0.0 0.00 0.34 0.30 94 1014.4
20260906134125 56 0 0.0 0.0 0.00 0.34 0.30 94 1014.3
20260906133224 56 240 0.0 1.0 0.00 0.34 0.30 95 1014.4
20260906131424 55 0 0.0 0.0 0.02 0.34 0.30 94 1014.5
20260906130524 55 0 0.0 0.0 0.04 0.34 0.30 94 1014.5
20260906125624 55 0 0.0 0.0 0.04 0.34 0.30 94 1014.4
20260906124724 54 0 0.0 0.0 0.04 0.34 0.30 94 1014.4
20260906123824 54 0 0.0 0.0 0.04 0.34 0.30 94 1014.5
20260906122924 54 0 0.0 0.0 0.04 0.34 0.30 94 1014.3
20260906122024 54 0 0.0 0.0 0.02 0.32 0.28 94 1014.1
20260906121125 54 0 0.0 0.0 0.01 0.31 0.27 94 1014.2
20260906115324 54 0 0.0 0.0 0.00 0.30 0.26 94 1014.1
20260906114424 54 0 0.0 0.0 0.01 0.30 0.26 94 1014.2
20260906113524 54 0 0.0 0.0 0.01 0.30 0.26 94 1014.0
20260906111724 54 0 0.0 0.0 0.02 0.30 0.26 94 1013.7
20260906110824 54 0 0.0 0.0 0.04 0.30 0.26 94 1013.6
20260906105924 54 0 0.0 0.0 0.04 0.30 0.26 94 1013.6
20260906105024 54 0 0.0 0.0 0.04 0.30 0.26 94 1013.4
20260906104124 54 0 0.0 0.0 0.03 0.29 0.25 94 1013.3
20260906102324 54 0 0.0 0.0 0.02 0.28 0.24 94 1013.3
20260906101424 54 0 0.0 0.0 0.02 0.27 0.23 94 1013.3
20260906100524 54 0 0.0 0.0 0.01 0.26 0.22 94 1013.2
20260906095624 54 0 0.0 0.0 0.01 0.26 0.22 94 1013.1
20260906094724 54 0 0.0 0.0 0.01 0.26 0.22 94 1013.0
20260906093824 54 0 0.0 0.0 0.02 0.26 0.22 94 1012.8
20260906092025 54 0 0.0 0.0 0.01 0.25 0.21 94 1012.7
20260906090224 55 0 0.0 0.0 0.02 0.25 0.21 94 1012.5
20260906085325 55 0 0.0 0.0 0.03 0.25 0.21 94 1012.5
20260906084424 55 0 0.0 0.0 0.03 0.24 0.20 94 1012.4
20260906083524 55 0 0.0 0.0 0.04 0.24 0.20 94 1012.4
20260906082624 55 0 0.0 0.0 0.06 0.24 0.20 94 1012.5
20260906081724 55 0 0.0 0.0 0.09 0.24 0.20 94 1012.5
20260906080824 55 0 0.0 0.0 0.11 0.23 0.19 94 1012.6
20260906075924 56 0 0.0 0.0 0.12 0.22 0.18 94 1012.5
20260906075025 56 0 0.0 0.0 0.14 0.22 0.18 94 1012.4
20260906074124 56 0 0.0 0.0 0.13 0.20 0.16 94 1012.4
20260906072324 56 0 0.0 0.0 0.10 0.16 0.12 94 1012.3
20260906071424 56 240 0.0 2.0 0.08 0.14 0.10 94 1012.4
20260906070523 56 238 0.0 2.0 0.06 0.12 0.08 94 1012.3
20260906065624 56 0 0.0 0.0 0.04 0.09 0.05 94 1012.4
20260906064724 56 0 0.0 0.0 0.03 0.08 0.04 94 1012.3
20260906063824 56 0 0.0 0.0 0.01 0.06 0.02 94 1012.2
20260906061124 56 0 0.0 0.0 0.01 0.06 0.02 94 1012.2
20260906060223 56 0 0.0 0.0 0.00 0.05 0.01 94 1012.2
20260906055323 56 0 0.0 0.0 0.00 0.05 0.01 94 1012.2
20260906054423 56 0 0.0 0.0 0.00 0.05 0.01 94 1012.2
20260906053523 56 0 0.0 0.0 0.00 0.05 0.01 94 1012.3
20260906052623 56 0 0.0 0.0 0.00 0.05 0.01 94 1012.3
20260906051723 56 0 0.0 0.0 0.01 0.05 0.01 94 1012.2
20260906050824 56 0 0.0 0.0 0.01 0.05 0.01 93 1012.3
20260906045923 56 0 0.0 0.0 0.01 0.05 0.01 93 1012.4
20260906045024 56 0 0.0 0.0 0.01 0.05 0.01 93 1012.4
20260906044124 56 0 0.0 0.0 0.01 0.05 0.01 93 1012.4
20260906041423 56 0 0.0 0.0 0.01 0.04 0.00 93 1012.4
20260906040523 56 0 0.0 0.0 0.02 0.04 0.00 93 1012.4
20260906035623 56 0 0.0 0.0 0.02 0.04 0.04 93 1012.4
20260906034723 56 0 0.0 0.0 0.02 0.04 0.04 93 1012.3
20260906033823 56 0 0.0 0.0 0.02 0.04 0.04 93 1012.3
20260906032923 56 0 0.0 0.0 0.02 0.04 0.04 93 1012.2
20260906032023 57 0 0.0 0.0 0.02 0.03 0.03 93 1012.1
20260906031123 57 0 0.0 0.0 0.02 0.03 0.03 93 1012.1
20260906030223 57 0 0.0 0.0 0.02 0.02 0.02 92 1011.9
20260906025323 57 0 0.0 0.0 0.02 0.02 0.02 93 1011.9
20260906024423 57 0 0.0 0.0 0.02 0.02 0.02 92 1011.9
20260906023523 58 0 0.0 0.0 0.02 0.02 0.02 92 1011.9
20260906021723 58 234 0.0 3.0 0.01 0.01 0.01 92 1011.9
20260906015923 59 253 0.0 2.0 0.00 0.00 0.00 91 1011.9
20260906015023 59 276 0.0 1.0 0.00 0.00 0.00 91 1012.0
20260906014123 59 274 0.0 1.0 0.00 0.00 0.00 90 1011.9
20260906012323 59 272 0.0 4.0 0.00 0.00 0.00 89 1011.9
20260906010523 60 271 0.0 4.0 0.00 0.00 0.00 88 1011.9
20260906005623 60 271 0.0 4.0 0.00 0.00 0.00 88 1011.7
20260906004723 60 271 0.0 4.0 0.00 0.00 0.00 87 1011.7
20260906002923 62 279 0.0 4.0 0.00 0.00 0.00 86 1011.5
20260906002023 62 294 0.0 4.0 0.00 0.00 0.00 86 1011.4
20260906001123 63 296 1.0 7.0 0.00 0.00 0.00 85 1011.5
20260906000223 63 288 1.0 9.0 0.00 0.00 0.00 84 1011.2
20260905235323 64 305 1.0 6.0 0.00 0.00 0.00 84 1011.0
20260905234423 64 319 1.0 6.0 0.00 0.00 0.00 82 1010.8
20260905233523 64 315 0.0 4.0 0.00 0.00 0.00 82 1010.7
20260905232623 65 312 0.0 3.0 0.00 0.00 0.00 82 1010.8
20260905230823 65 0 0.0 0.0 0.00 0.00 0.00 81 1010.5
20260905225923 66 0 0.0 0.0 0.00 0.00 0.00 79 1010.6
20260905225023 66 313 0.0 2.0 0.00 0.00 0.00 78 1010.6
20260905224123 66 313 0.0 4.0 0.00 0.00 0.00 77 1010.5
20260905223222 67 313 0.0 3.0 0.00 0.00 0.00 77 1010.3
20260905222323 67 312 0.0 4.0 0.00 0.00 0.00 76 1010.2
20260905221422 68 311 1.0 8.0 0.00 0.00 0.00 74 1010.2
20260905220523 68 346 2.0 8.0 0.00 0.00 0.00 72 1010.3
20260905215623 68 316 2.0 10.0 0.00 0.00 0.00 75 1010.2
20260905214723 68 306 2.0 10.0 0.00 0.00 0.00 73 1010.0
20260905213823 68 317 2.0 9.0 0.00 0.00 0.00 73 1010.0
20260905212923 68 320 2.0 6.0 0.00 0.00 0.00 75 1009.8
20260905212022 68 309 2.0 9.0 0.00 0.00 0.00 73 1009.7
20260905211122 68 299 1.0 6.0 0.00 0.00 0.00 73 1009.7
20260905210223 68 309 1.0 8.0 0.00 0.00 0.00 72 1009.6
20260905205322 68 323 2.0 8.0 0.00 0.00 0.00 69 1009.6
20260905204422 69 309 2.0 8.0 0.00 0.00 0.00 71 1009.5
20260905203522 69 316 1.0 7.0 0.00 0.00 0.00 71 1009.4
20260905202623 69 270 1.0 5.0 0.00 0.00 0.00 71 1009.5
20260905201722 70 319 2.0 9.0 0.00 0.00 0.00 69 1009.4
20260905200822 70 333 1.0 8.0 0.00 0.00 0.00 70 1009.4
20260905195922 70 314 1.0 9.0 0.00 0.00 0.00 68 1009.5
20260905195022 70 319 2.0 9.0 0.00 0.00 0.00 69 1009.4
20260905194122 71 301 1.0 9.0 0.00 0.00 0.00 70 1009.3
20260905193222 71 322 2.0 11.0 0.00 0.00 0.00 70 1009.4
20260905192322 71 318 1.0 5.0 0.00 0.00 0.00 68 1009.3
20260905191422 71 304 2.0 7.0 0.00 0.00 0.00 67 1009.2
20260905190522 71 317 3.0 14.0 0.00 0.00 0.00 66 1009.2
20260905185622 71 303 3.0 12.0 0.00 0.00 0.00 68 1009.3
20260905184722 71 308 1.0 7.0 0.00 0.00 0.00 70 1009.3
20260905183822 70 328 1.0 9.0 0.00 0.00 0.00 69 1009.3
20260905182922 70 328 2.0 15.0 0.00 0.00 0.00 69 1009.2
20260905182022 71 324 3.0 15.0 0.00 0.00 0.00 68 1009.3